Location: Nairn
(57.5833°N, 3.8667°W)
Time: 17:01:32
(UTC+00:00)

IRS-P3 - Pass Details

Date: 07 August 2020
Orbit: 814 x 819 km, 98.9° (Epoch: 22 September)

Event Time Altitude Azimuth Distance (km) Brightness Sun altitude
Rises 03:03:46 0° 17° (NNE) 3,365 8.8 -8.8°
Reaches altitude 10° 03:06:08 10° 20° (NNE) 2,428 7.9 -8.6°
Maximum altitude 03:11:31 75° 105° (ESE) 853 4.3 -8.2°
Drops below altitude 10° 03:16:52 10° 192° (SSW) 2,412 6.1 -7.7°
Enters shadow 03:17:56 - 193° (SSW) 2,835 6.4 -7.6°
